Lapeer, MI

1:00 PM EDT on October 20, 2017 (GMT -0400)
Lapeer

Weather History for KD95 - September, 2013

Change the Weather History Date:

Saturday, September 14, 2013

  Actual Average (KFNT) Record (KFNT)
Temperature  
Mean Temperature 50 °F -  
Max Temperature 67 °F 71 °F 98 °F (1939)
Min Temperature 32 °F 50 °F 33 °F (1963)
Degree Days  
Heating Degree Days 16    
Moisture  
Dew Point 39 °F    
Average Humidity 73    
Maximum Humidity 100    
Minimum Humidity 34    
Precipitation  
Precipitation 0.00 in - - ()
Sea Level Pressure  
Sea Level Pressure 30.14 in    
Wind  
Wind Speed 2 mph (WSW)    
Max Wind Speed 10 mph    
Max Gust Speed -    
Visibility 9 miles    
Events      
Averages and records for this station are not official NWS values.
T = Trace of Precipitation, MM = Missing Value Source: NWS Daily Summary

Daily Weather History Graph

Daily Weather History Graph

Search for Another Location

Airport or City:

Trip Planner

Search our weather history database for the weather conditions in past years. The results will help you decide how hot, cold, wet, or windy it might be!

Date:

Astronomy

Sep. 14, 2013 Rise Set
Actual Time 7:11 AM EDT 7:44 PM EDT
Civil Twilight 6:43 AM EDT 8:12 PM EDT
Nautical Twilight 6:09 AM EDT 8:46 PM EDT
Astronomical Twilight 5:34 AM EDT 9:21 PM EDT
Moon 4:30 PM EDT (9/14) 1:36 AM EDT (9/14)
Length of Visible Light 13h 29m
Length of Day
12h 32m
Waxing Gibbous, 72% of the Moon is Illuminated
Sep 14
Waxing Gibbous
Sep 19
Full
Sep 26
Last Quarter
Oct 4
New
Oct 11
First Quarter

Hourly Weather History & Observations

Time (EDT) Temp. Dew Point Humidity Pressure Visibility Wind Dir Wind Speed Gust Speed Precip Events Conditions
12:13 AM 35.8 °F 35.6 °F 99% 30.14 in 7.0 mi Calm Calm - N/A   Clear
12:34 AM 35.4 °F 35.4 °F 100% 30.15 in 10.0 mi Calm Calm - N/A   Clear
12:54 AM 35.2 °F 35.2 °F 100% 30.15 in 5.0 mi Calm Calm - N/A   Clear
1:13 AM 35.2 °F 35.2 °F 100% 30.14 in 7.0 mi Calm Calm - N/A   Clear
1:34 AM 34.9 °F 34.9 °F 100% 30.14 in 10.0 mi Calm Calm - N/A   Clear
1:54 AM 34.9 °F 34.9 °F 100% 30.14 in 7.0 mi Calm Calm - N/A   Clear
2:13 AM 34.5 °F 34.5 °F 100% 30.14 in 7.0 mi Calm Calm - N/A   Clear
2:34 AM 34.3 °F 34.3 °F 100% 30.14 in 7.0 mi Calm Calm - N/A   Clear
2:54 AM 33.8 °F 33.8 °F 100% 30.14 in 2.0 mi Calm Calm - N/A   Clear
3:13 AM 33.1 °F 33.1 °F 100% 30.14 in 5.0 mi Calm Calm - N/A   Clear
3:34 AM 33.4 °F 33.4 °F 100% 30.15 in 2.5 mi Calm Calm - N/A   Scattered Clouds
3:53 AM 32.7 °F 32.7 °F 100% 30.15 in 0.8 mi Calm Calm - N/A   Mostly Cloudy
4:13 AM 33.1 °F 33.1 °F 100% 30.15 in 10.0 mi Calm Calm - N/A   Clear
4:34 AM 32.7 °F 32.7 °F 100% 30.15 in 10.0 mi Calm Calm - N/A   Clear
4:53 AM 33.3 °F 33.3 °F 100% 30.15 in 10.0 mi Calm Calm - N/A   Scattered Clouds
5:13 AM 32.7 °F 32.7 °F 100% 30.15 in 10.0 mi Calm Calm - N/A   Scattered Clouds
5:34 AM 32.5 °F 32.5 °F 100% 30.16 in 10.0 mi Calm Calm - N/A   Clear
5:53 AM 32.5 °F 32.5 °F 100% 30.15 in 10.0 mi Calm Calm - N/A   Scattered Clouds
6:13 AM 32.2 °F 32.2 °F 100% 30.16 in 10.0 mi Calm Calm - N/A   Clear
6:34 AM 32.4 °F 32.4 °F 100% 30.16 in 10.0 mi Calm Calm - N/A   Clear
6:53 AM 32.4 °F 32.4 °F 100% 30.17 in 10.0 mi Calm Calm - N/A   Scattered Clouds
7:13 AM 32.4 °F 32.4 °F 100% 30.17 in 10.0 mi Calm Calm - N/A   Mostly Cloudy
7:34 AM 32.5 °F 32.5 °F 100% 30.17 in 10.0 mi Calm Calm - N/A   Mostly Cloudy
7:53 AM 34.3 °F 34.3 °F 100% 30.18 in 10.0 mi Calm Calm - N/A   Clear
8:14 AM 36.5 °F 36.5 °F 100% 30.18 in 10.0 mi Calm Calm - N/A   Clear
8:34 AM 40.1 °F 40.1 °F 100% 30.18 in 10.0 mi Calm Calm - N/A   Clear
8:53 AM 43.3 °F 42.4 °F 97% 30.18 in 10.0 mi Calm Calm - N/A   Clear
9:14 AM 46.8 °F 43.9 °F 90% 30.19 in 10.0 mi Calm Calm - N/A   Clear
9:33 AM 49.3 °F 43.7 °F 81% 30.19 in 10.0 mi Calm Calm - N/A   Clear
9:53 AM 51.8 °F 43.9 °F 74% 30.19 in 10.0 mi Calm Calm - N/A   Clear
10:14 AM 54.0 °F 43.9 °F 69% 30.19 in 10.0 mi NNW 3.5 mph - N/A   Clear
10:34 AM 55.6 °F 43.0 °F 63% 30.19 in 10.0 mi NW 4.6 mph - N/A   Clear
10:53 AM 57.2 °F 43.3 °F 60% 30.19 in 10.0 mi WNW 4.6 mph - N/A   Clear
11:14 AM 58.3 °F 43.0 °F 57% 30.19 in 10.0 mi WNW 5.8 mph - N/A   Clear
11:34 AM 59.0 °F 41.9 °F 53% 30.18 in 10.0 mi West 5.8 mph - N/A   Clear
11:53 AM 60.1 °F 39.7 °F 47% 30.18 in 10.0 mi West 5.8 mph - N/A   Clear
12:14 PM 60.8 °F 38.7 °F 44% 30.18 in 10.0 mi West 3.5 mph - N/A   Clear
12:33 PM 61.7 °F 39.6 °F 44% 30.17 in 10.0 mi WSW 4.6 mph - N/A   Clear
12:53 PM 61.9 °F 38.5 °F 42% 30.17 in 10.0 mi West 5.8 mph - N/A   Clear
1:14 PM 63.1 °F 38.7 °F 40% 30.16 in 10.0 mi West 5.8 mph - N/A   Clear
1:33 PM 62.4 °F 38.8 °F 42% 30.15 in 10.0 mi WNW 3.5 mph - N/A   Clear
1:53 PM 64.2 °F 36.3 °F 36% 30.15 in 10.0 mi WSW 5.8 mph - N/A   Clear
2:14 PM 64.6 °F 36.5 °F 35% 30.14 in 10.0 mi SW 3.5 mph - N/A   Clear
2:33 PM 65.5 °F 37.8 °F 36% 30.14 in 10.0 mi West 4.6 mph - N/A   Clear
2:53 PM 65.5 °F 36.7 °F 35% 30.13 in 10.0 mi West 5.8 mph - N/A   Clear
3:14 PM 66.0 °F 37.2 °F 35% 30.12 in 10.0 mi SSW 4.6 mph - N/A   Clear
3:33 PM 66.0 °F 38.1 °F 36% 30.11 in 10.0 mi WSW 9.2 mph - N/A   Clear
3:53 PM 67.3 °F 38.1 °F 34% 30.11 in 10.0 mi WSW 4.6 mph - N/A   Clear
4:14 PM 67.3 °F 39.0 °F 35% 30.11 in 10.0 mi WSW 5.8 mph - N/A   Clear
4:33 PM 66.7 °F 38.7 °F 36% 30.10 in 10.0 mi SSW 10.4 mph - N/A   Clear
4:54 PM 67.1 °F 38.8 °F 35% 30.10 in 10.0 mi SSW 8.1 mph - N/A   Clear
5:14 PM 66.9 °F 40.1 °F 37% 30.10 in 10.0 mi SSW 9.2 mph - N/A   Clear
5:33 PM 67.1 °F 39.7 °F 37% 30.10 in 10.0 mi SW 6.9 mph - N/A   Clear
5:54 PM 66.7 °F 40.1 °F 38% 30.09 in 10.0 mi SSW 9.2 mph - N/A   Clear
6:14 PM 66.2 °F 39.6 °F 38% 30.08 in 10.0 mi SW 9.2 mph - N/A   Clear
6:33 PM 65.8 °F 39.4 °F 38% 30.08 in 10.0 mi SW 9.2 mph - N/A   Clear
6:54 PM 65.5 °F 39.6 °F 39% 30.08 in 10.0 mi SW 5.8 mph - N/A   Clear
7:14 PM 64.0 °F 40.1 °F 41% 30.09 in 10.0 mi WSW 4.6 mph - N/A   Clear
7:33 PM 61.7 °F 41.5 °F 48% 30.09 in 10.0 mi Calm Calm - N/A   Clear
7:54 PM 55.6 °F 44.2 °F 66% 30.10 in 10.0 mi Calm Calm - N/A   Clear
8:13 PM 53.2 °F 45.1 °F 74% 30.10 in 10.0 mi South 3.5 mph - N/A   Clear
8:33 PM 50.4 °F 45.5 °F 83% 30.10 in 10.0 mi South 3.5 mph - N/A   Clear
8:54 PM 49.8 °F 45.1 °F 84% 30.11 in 10.0 mi South 3.5 mph - N/A   Clear
9:13 PM 47.5 °F 44.6 °F 90% 30.11 in 10.0 mi Calm Calm - N/A   Clear
9:33 PM 50.0 °F 45.1 °F 83% 30.11 in 10.0 mi South 3.5 mph - N/A   Clear
9:54 PM 50.2 °F 45.9 °F 85% 30.10 in 10.0 mi South 3.5 mph - N/A   Clear
10:13 PM 50.5 °F 45.5 °F 83% 30.10 in 10.0 mi SSW 3.5 mph - N/A   Clear
10:33 PM 47.5 °F 44.8 °F 90% 30.10 in 10.0 mi Calm Calm - N/A   Clear
10:54 PM 47.3 °F 44.1 °F 88% 30.09 in 10.0 mi Calm Calm - N/A   Clear
11:13 PM 46.0 °F 44.1 °F 93% 30.10 in 10.0 mi Calm Calm - N/A   Clear
11:33 PM 45.3 °F 43.5 °F 93% 30.10 in 10.0 mi Calm Calm - N/A   Clear
11:54 PM 44.8 °F 43.9 °F 97% 30.10 in 10.0 mi Calm Calm - N/A   Clear